CAPE
1878 2081 1936 1978 2188 2306 2283 2337 2316 2228 2254 2275 2202 2121 2120 2130 2057 2087 2330 2292 2318 2581 2788 2861 3066 2997 2769 2876 2960 2966 2864 2592 2230 2268 2247 2298 2172 1711 1532 1431 1304 1266 1240 1137 745 748 704 626 715 623 749 531 464 342 318 666 716 554 680 608 444 456 360 291 269 327 800 245 292 294 656 578 534 582 403 310 630 1076 642 895 1166 786 752 776 762
1974 1974 1972 2003 2096 2176 2065 2081 2155 2144 2104 2122 2212 2163 2191 2207 2184 2226 2327 2390 2406 2473 2802 2826 3021 3054 2904 3060 3084 3121 3049 2848 2359 2266 2228 2257 2173 1654 1602 1555 1436 1338 1317 1295 1041 762 808 818 770 704 832 557 520 446 350 399 522 354 566 320 350 559 463 438 409 338 331 811 533 661 486 560 312 944 506 339 282 499 624 991 1046 889 970 831 658
1759 2120 2116 2192 2171 2075 2046 2139 2176 2182 2085 2039 2008 1998 2095 2150 2150 2275 2138 2108 2398 2406 2678 2702 3036 3126 2970 3112 3266 3250 3188 2881 2585 2566 2410 2227 2155 1634 1460 1556 1472 1384 1358 1269 1110 896 802 837 757 714 681 546 641 514 362 455 395 380 432 400 481 407 679 549 481 463 285 472 765 440 546 850 460 533 818 604 656 878 846 838 751 1040 1268 1201 793
1725 2076 2055 2043 2078 2148 2227 2190 2049 1989 1966 1959 1905 1861 1882 2031 2174 2168 2068 2010 2305 2474 2622 2744 3053 3189 3027 3118 3248 3222 3207 3076 2889 2670 2588 2401 2149 2012 1676 1562 1534 1453 1400 1288 1091 956 833 873 764 710 700 589 678 635 604 586 694 634 550 755 653 559 904 805 687 437 481 313 917 353 538 540 744 734 912 885 600 858 871 1159 1274 1257 1180 1069 1110
1565 1790 1869 1872 1930 2097 2082 2088 2070 2011 1918 1880 1901 1841 1836 1880 2021 2030 2052 2017 2216 2450 2596 2785 3003 3071 2891 2999 3096 3108 3052 2950 2816 2607 2578 2506 2360 2158 1954 1702 1602 1545 1470 1405 1060 1080 906 906 916 872 834 655 766 759 687 691 617 566 508 783 736 755 924 824 877 714 604 471 446 826 797 691 560 670 878 662 772 997 1373 1319 1153 937 877 688 429
1459 1667 1703 1740 1969 2060 2136 2006 2011 2005 1922 1899 1896 1880 1884 1906 2011 2062 2063 2096 2196 2272 2526 2610 2713 2906 2862 2869 2990 3056 3026 2900 2773 2681 2497 2422 2340 2173 2078 1861 1630 1584 1524 1456 1313 1108 1005 971 936 1008 896 766 773 837 866 675 624 620 578 754 788 811 964 954 902 1035 784 636 569 483 865 488 604 667 805 978 705 796 1255 1180 1048 1128 1143 851 553
1632 1591 1649 1659 2003 2076 2096 2077 2111 2027 2080 1981 2004 2000 1946 1956 1998 2103 2080 2104 2143 2207 2286 2528 2586 2769 2871 2850 2852 2998 3006 2884 2767 2707 2596 2471 2338 2198 2014 1917 1726 1596 1524 1380 1240 1114 959 952 949 983 916 838 762 933 977 714 732 634 686 761 885 932 869 869 1074 1069 1018 846 741 611 524 666 653 636 942 749 896 772 775 855 828 993 953 632 785
1768 1778 1742 1781 2035 2118 2095 2208 2287 2277 2190 2260 2230 2141 2064 2048 2143 2214 2231 2164 2153 2179 2212 2376 2551 2543 2745 2802 2802 2871 2917 2814 2740 2712 2636 2495 2326 2184 2008 1888 1773 1641 1502 1370 1185 934 914 880 808 870 874 887 806 930 960 855 818 732 470 442 780 900 769 894 975 846 905 844 652 470 610 585 740 698 831 664 710 801 692 583 565 602 971 1000 770
1948 1870 1936 2041 2251 2315 2260 2334 2531 2504 2457 2523 2484 2385 2276 2284 2316 2372 2415 2302 2205 2228 2236 2291 2473 2491 2552 2692 2703 2664 2655 2616 2582 2598 2596 2531 2351 2136 2021 1883 1777 1662 1547 1356 1190 993 964 864 769 740 808 701 556 688 740 747 735 652 640 599 815 940 930 870 920 815 835 700 656 682 592 569 522 642 683 786 781 814 1013 498 508 628 674 668 922
2187 1863 1950 2300 2602 2490 2577 2576 2756 2807 2637 2752 2792 2689 2472 2462 2386 2514 2636 2438 2400 2371 2384 2395 2420 2508 2508 2596 2620 2576 2482 2490 2094 1798 1914 2441 2374 2125 1994 1913 1796 1678 1600 1441 1118 1074 1056 994 892 755 588 584 648 703 766 817 853 886 845 780 650 768 887 930 871 832 679 614 475 363 306 275 297 577 508 582 888 889 568 592 553 584 556 564 626
1938 1914 2058 2322 2451 2565 2708 2711 2808 2792 2810 2838 2805 2832 2606 2620 2641 2770 2748 2652 2488 2548 2533 2497 2405 2448 2498 2531 2549 2468 2408 2308 1735 1574 1518 1549 2106 2191 2018 1930 1798 1690 1607 1553 1352 1184 1174 1120 1038 997 940 842 795 857 896 939 992 1046 1023 889 711 544 823 872 756 712 766 546 395 442 272 300 353 448 502 336 426 457 484 620 599 288 283 547 562
1678 2166 2421 2678 2758 2744 2577 2823 2823 2836 2830 2833 2931 2886 2740 2690 2707 2793 2820 2765 2711 2693 2630 2594 2622 2466 2484 2518 2474 2460 2424 1912 1642 1562 1513 1484 1453 2050 2092 1994 1829 1718 1624 1528 1461 1250 1288 1257 1173 1088 1066 1053 1032 1036 1080 1048 1039 1102 1067 938 809 694 461 688 785 914 790 532 440 406 398 418 361 469 236 102 360 488 634 585 510 221 344 544 535
2063 2360 2436 2505 2776 2879 2875 2989 2902 2928 2908 2820 2907 2911 2897 2885 2927 2965 2911 2917 2908 2894 2765 2639 2649 2599 2521 2601 2490 2450 2400 1871 1637 1579 1560 1526 1513 1585 2068 2024 1924 1799 1692 1602 1558 1534 1468 1366 1308 1215 1181 1186 1244 1277 1287 1179 1168 1249 1185 937 840 688 477 324 374 746 748 880 448 496 520 326 325 346 395 444 538 508 334 170 262 410 446 364 248
2166 2188 2602 2878 2952 2983 3058 2934 2935 3010 2989 2940 2958 2961 2926 2920 2859 2835 2838 2910 2956 2929 2756 2730 2700 2742 2597 2564 2590 2551 2508 1966 1688 1620 1586 1571 1557 1537 1877 2045 1974 1926 1854 1759 1688 1702 1740 1510 1478 1370 1324 1384 1419 1451 1438 1244 1143 1158 1013 767 707 656 546 386 274 230 357 429 540 402 866 616 410 553 537 412 566 482 300 170 288 196 156 182 253
2236 2470 2726 2694 2874 3080 3138 3090 3106 3128 3158 3085 3019 2937 2916 2916 2907 2849 2842 2926 2950 2872 2857 2665 2541 2575 2443 2520 2527 2567 2532 1979 1750 1689 1651 1610 1571 1547 1546 1980 2018 2002 1953 1839 1779 1710 1711 1623 1570 1493 1465 1508 1543 1637 1525 1351 1273 1250 1106 878 774 584 376 312 292 168 140 313 434 191 340 474 442 582 534 264 258 264 138 193 295 165 141 133 88
2167 2392 2791 2822 2942 3083 3091 3190 3159 3184 3148 3127 3066 2999 2992 3034 3021 2989 2932 2978 2931 2892 2987 2738 2548 2601 2418 2410 2298 2274 2545 1988 1814 1727 1686 1662 1616 1571 1552 1788 1996 2007 1993 1867 1763 1736 1624 1689 1673 1615 1590 1624 1698 1790 1752 1559 1348 1147 897 686 596 537 457 421 326 115 562 160 100 53 93 513 351 575 306 153 144 99 46 25 54 23 49 33 4
2314 2713 2598 2700 2916 3067 3137 3206 3248 3176 3170 3148 3113 3084 3115 3161 3147 3085 3018 3023 3018 2926 2738 2583 2632 2773 2713 2454 2356 2460 2653 2331 1897 1775 1707 1679 1650 1629 1592 1648 1886 1768 1998 1927 1803 1655 1724 1771 1740 1718 1706 1781 1926 1989 1845 1530 1334 1119 864 748 634 572 540 414 272 0 64 0 0 0 0 0 0 0 0 0 396 62 21 4 4 0 0 0 0
2780 2904 2873 3184 3263 3239 3258 3074 3295 3238 3254 3215 3213 3168 3232 3247 3240 3062 2980 2927 2929 2842 2827 2728 2590 2545 2444 2589 2587 2566 2588 2445 1998 1844 1762 1701 1672 1659 1658 1656 1676 1725 1863 1682 1785 1733 1817 1849 1834 1791 1888 1998 2026 2078 1838 1600 1310 1109 977 777 640 565 466 367 336 214 0 0 0 0 0 0 0 0 0 0 0 0 3 8 0 0 0 0 0
2894 2876 2964 3108 3269 3237 3134 3013 2833 3331 3354 3312 3233 3282 3416 3447 3267 3239 3095 3095 3023 3004 2806 2634 2576 2604 2782 2746 2388 2374 2746 2664 2176 1950 1840 1792 1750 1726 1714 1713 1699 1885 1748 1732 1746 1806 1888 1908 1911 1991 2106 2148 2161 2105 1905 1714 1398 968 698 616 544 449 431 344 294 67 48 14 0 0 0 0 0 0 0 0 0 0 0 0 0 0 0 0 0
2968 2875 2801 3118 3052 3370 3396 3226 3076 3099 3163 3306 3344 3436 3436 3270 3323 3162 2968 2960 3038 3088 2907 2702 2672 2907 2762 2543 2493 2420 2602 2835 2308 2086 1934 1884 1850 1808 1811 1800 1759 1882 1898 1744 1760 1772 1891 1972 2008 2228 2263 2256 2229 2051 1810 1638 1513 947 619 539 448 429 370 357 232 125 66 0 0 0 0 0 0 0 0 0 0 0 0 0 0 0 0 0 0
3121 3109 3131 2884 3158 3398 3341 3341 3130 3190 3295 3407 3460 3486 3564 3372 3204 3102 2948 2882 2940 2976 2944 2826 2760 2823 2673 2656 2884 2594 2507 2941 2336 2236 2047 1954 1906 1842 1853 1856 2054 2000 1973 1785 1780 1819 1964 1993 2158 2307 2277 2310 2233 2062 1776 1431 1119 900 694 510 430 529 290 296 49 5 8 1 0 0 0 0 0 0 0 0 0 0 0 0 0 0 0 0 0
3159 3132 3284 3252 3211 3405 3500 3479 3450 3372 3497 3614 3620 3517 3345 3210 3195 3264 3050 3100 3018 3126 3062 2924 2894 2698 2986 2926 2901 2813 2562 2321 2454 2269 2158 2056 1972 1891 1888 1935 1916 1953 2020 1854 1794 1848 1973 2090 2225 2352 2410 2367 2188 1983 1574 1228 938 717 558 377 280 80 330 111 15 5 33 1 0 0 0 0 0 0 0 0 0 0 0 0 0 0 0 0 0
3376 3478 3520 3335 3503 3546 3604 3674 3334 3298 3432 3464 3354 3367 3476 3415 3366 3336 3265 3222 3182 3098 3182 3162 2909 2920 2923 2750 2823 2701 2836 2421 2216 2275 2230 2163 2081 1993 1952 1952 1960 1929 2160 1902 1789 1942 2067 2177 2399 2554 2568 2423 2129 1682 1112 814 642 499 374 364 379 335 224 70 10 20 34 2 1 3 0 0 0 0 0 0 0 0 0 0 0 0 0 0 0
3630 3546 3485 3488 3518 3549 3721 3295 3215 3259 3444 3551 3576 3638 3695 3546 3456 3426 3509 3380 3208 3196 3228 3357 3254 2922 2919 2918 2972 2845 2891 3039 2426 2303 2266 2234 2194 2113 2042 1992 1980 1974 1952 2004 1976 2064 2137 2392 2582 2709 2498 2134 1613 1233 969 702 472 372 357 400 362 300 202 80 47 66 16 0 2 0 0 0 0 0 0 0 0 0 0 0 0 0 0 0 0
3410 3378 3137 3251 3470 3601 3512 3412 3488 3511 3577 3620 3632 3710 3742 3681 3589 3614 3581 3401 3351 3296 3013 2896 3057 3148 3180 3076 3190 3001 2942 2907 2490 2402 2396 2350 2320 2236 2100 2034 2027 2008 2010 2005 2026 2157 2410 2642 2782 2613 2200 1693 1315 1081 811 575 410 358 381 406 399 310 175 31 36 57 27 28 0 0 0 0 0 0 0 0 0 0 0 0 0 0 0 0 0
3479 3518 3532 3542 3431 3328 3569 3624 3703 3604 3670 3526 3612 3761 3608 3610 3566 3666 3620 3559 3490 3343 3487 3357 3222 3178 3366 3282 3208 3091 2916 2839 2438 2368 2406 2432 2418 2326 2161 2059 2036 2036 2031 2034 2164 2339 2646 2764 2607 2180 1713 1321 1144 926 724 510 368 350 358 372 349 277 66 64 80 60 90 13 0 0 0 0 0 0 0 0 0 0 0 1 0 0 0 0 0
3496 3504 3464 3285 3372 3352 3336 3213 3284 3324 3536 3528 3591 3699 3650 3747 3682 3767 3752 3614 3481 3345 3142 3303 3249 3092 2896 2890 2765 2810 2701 2565 2516 2421 2448 2491 2376 2324 2130 2083 2058 2050 2026 2116 2266 2513 2679 2450 2106 1745 1355 1062 959 781 611 444 357 327 350 342 294 172 64 102 80 118 40 0 0 0 0 0 0 0 0 0 0 4 1 1 0 0 0 0 0
3537 3452 3444 3532 3399 3310 3328 3051 3069 3312 3648 3744 3685 3736 3766 3676 3673 3672 3568 3579 3496 3326 3258 3050 2896 2833 2884 2898 3001 2674 2532 2506 2466 2455 2474 2456 2456 2300 2148 2100 2095 2077 2116 2204 2426 2708 2492 2249 2003 1489 982 816 675 561 468 390 330 328 328 304 160 0 0 0 10 87 24 0 0 0 0 0 0 0 0 0 0 4 0 0 0 0 0 0 0
3688 3930 4010 3780 3514 3086 3068 3007 3214 3258 3567 3695 3643 3837 3861 3661 3603 3637 3614 3737 3663 3566 3393 3070 2985 2917 2836 2964 3050 2657 2558 2454 2419 2493 2431 2416 2308 2393 2172 2098 2115 2115 2180 2378 2660 2500 2319 2134 1778 1022 753 600 466 422 385 343 301 270 284 139 0 0 0 0 0 1 0 0 0 0 0 0 0 0 0 0 2 2 0 0 0 0 0 0 0
3294 3399 3470 3516 3509 3504 3467 3373 3334 3281 3128 3169 3023 3158 2981 2914 3406 3568 3543 3286 3130 3052 3068 3312 3566 3560 3702 3722 3165 2510 2468 2440 2450 2364 2436 2442 2343 2242 2163 2088 2113 2210 2301 2578 2556 2274 2065 1890 1452 657 522 424 372 328 279 4 185 199 8 0 0 0 0 0 0 0 0 0 0 0 0 0 0 0 0 0 6 0 0 0 0 0 0 0 0
2592 2717 2934 3070 3239 3329 3412 3449 3481 3450 3413 3406 3332 3237 3144 3014 2928 2854 2734 2793 2825 2792 2698 2671 2709 2824 2860 3315 3220 2463 2538 2462 2430 2305 2260 2292 2370 2189 2109 2076 2107 2184 2448 2579 2372 2149 2008 1736 852 453 342 289 159 48 0 0 186 7 0 0 0 0 0 0 0 0 0 0 0 0 0 0 0 0 0 0 0 0 0 0 0 0 0 0 0
1447 1862 2062 2344 2383 2542 2616 2728 2819 2954 3085 3146 3185 3168 3202 3216 3154 2820 2635 2632 2650 2579 2504 2513 2574 2570 2540 2535 2764 2618 2546 2604 2632 2505 2416 2276 2208 2212 2146 2126 2109 2234 2532 2474 2311 1984 1787 1230 410 308 216 49 0 0 0 144 0 0 1 1 0 0 0 0 0 0 0 0 0 0 0 0 0 0 0 0 0 0 0 0 0 0 0 0 0
895 935 975 1127 1238 1081 1366 1689 1773 1814 1763 1796 1878 1987 2120 2145 1928 1685 1334 1405 1738 1903 1972 1917 2177 2436 2488 2467 2460 2467 2509 2494 2496 2450 2406 2185 2095 2076 2208 2124 2218 2223 2264 2233 1742 1650 1493 582 270 50 12 0 0 88 0 0 0 0 0 0 0 0 0 0 0 0 0 0 0 0 0 0 0 0 0 0 0 0 0 0 0 0 0 0 0
868 810 726 749 716 698 841 940 980 922 870 877 902 965 1045 936 832 943 950 975 1048 220 0 90 292 1168 1947 2280 2332 2386 2428 2513 2554 2495 2482 2285 2122 2094 2100 2092 2051 1745 1614 1542 1620 1442 723 276 0 17 0 0 0 124 0 0 0 0 0 0 0 0 0 0 0 0 0 0 0 0 0 0 0 0 0 0 0 0 0 0 0 0 0 0 0
746 615 650 656 591 540 514 531 480 569 690 690 703 670 512 493 386 341 391 470 460 455 421 468 112 0 414 1198 1896 2072 2225 2317 2315 2341 2336 2000 1862 2066 2016 1962 1843 1544 1134 1120 958 620 356 261 0 0 0 0 0 0 0 0 0 0 0 0 0 0 0 0 0 0 0 0 0 0 0 0 0 0 0 0 0 0 0 0 0 0 0 0 0
813 633 556 498 472 464 438 418 389 676 758 611 350 296 225 195 237 124 74 60 87 111 144 294 390 44 0 74 674 1312 1776 2092 2090 2186 2290 1984 1670 1820 1779 1612 1604 1078 598 738 574 331 0 0 0 0 28 0 0 0 0 0 0 0 0 0 0 0 0 0 0 0 0 0 0 0 0 0 0 0 0 0 0 0 0 0 0 0 0 0 0
1167 1092 1066 947 900 710 681 824 850 764 475 130 218 280 244 211 114 42 0 1 5 8 0 0 12 0 3 28 18 383 994 1396 1844 2035 1984 1649 1444 1630 1493 1392 1278 724 454 378 132 0 0 0 0 37 22 0 0 0 0 0 0 0 0 0 0 0 0 0 0 0 0 0 0 0 0 0 0 0 0 0 0 0 0 0 0 0 0 0 0
1254 1286 1252 1198 1157 1112 1084 1056 999 803 556 232 170 180 222 199 94 20 10 12 0 0 0 1 1 11 4 9 7 27 188 1077 1501 1538 1326 1184 1182 1316 1350 910 717 419 136 0 0 0 0 0 0 0 0 0 0 0 0 0 0 0 0 0 0 0 0 0 0 0 0 0 0 0 0 0 0 0 0 0 0 0 0 0 0 0 0 0 0
1123 1244 1332 1347 1263 1201 1140 967 820 665 428 236 187 120 51 62 12 2 37 1 0 0 0 1 0 0 1 2 6 6 47 456 1165 1480 1328 1177 1142 948 799 362 244 1 94 106 52 10 0 0 0 65 8 0 0 0 0 0 0 0 0 0 0 0 0 0 0 0 0 0 0 0 0 0 0 0 0 0 0 0 0 0 0 0 0 0 0
497 550 704 748 701 712 686 584 514 426 227 175 118 114 178 72 2 0 1 0 1 0 0 1 0 4 14 0 0 0 0 8 747 400 646 484 301 112 0 0 0 89 58 62 23 0 0 0 0 0 0 0 0 0 0 0 0 0 0 0 0 0 0 0 0 0 0 0 0 0 0 0 0 0 0 0 0 0 0 0 0 0 0 0 0
527 384 314 376 348 426 466 502 475 239 131 48 14 82 33 2 1 1 2 0 0 0 0 0 0 0 0 1 0 0 8 34 260 319 58 108 95 16 0 44 42 26 46 56 47 0 88 56 0 0 0 0 0 0 0 0 0 0 0 0 0 0 0 0 0 0 0 0 0 0 0 0 0 0 0 0 0 0 0 0 0 0 0 0 0
580 529 486 409 357 347 391 308 242 196 140 81 54 48 43 0 1 0 1 0 0 0 0 0 0 0 30 186 293 276 249 232 130 65 34 90 130 112 98 84 68 66 61 69 10 0 0 0 0 0 0 0 0 0 0 0 0 0 0 0 0 0 0 0 0 0 0 0 0 0 0 0 0 0 0 0 0 0 0 0 0 0 0 0 0
613 580 565 480 483 424 416 348 367 389 301 173 44 9 0 0 0 0 0 0 0 0 0 0 0 0 10 56 162 254 246 204 175 138 124 134 138 126 109 112 92 77 47 13 0 0 0 0 0 0 0 0 0 0 0 0 0 0 0 0 0 0 0 0 0 0 0 0 0 0 0 0 0 0 0 0 0 0 0 0 0 0 0 0 0
504 511 452 459 500 479 431 477 515 468 263 146 64 42 108 77 18 0 0 0 0 0 0 0 0 1 0 33 50 72 96 96 90 89 92 92 74 63 64 56 34 0 0 0 0 0 0 0 0 0 0 0 0 0 0 0 0 0 0 0 0 0 0 0 0 0 0 0 0 0 0 0 0 0 0 0 0 0 0 0 0 0 0 0 0
367 327 515 533 436 489 413 458 338 365 252 314 364 204 118 107 27 0 0 0 0 0 0 1 0 4 0 4 20 20 29 54 48 36 32 34 44 50 45 30 18 2 0 0 0 0 0 0 0 0 0 0 0 0 0 0 0 0 0 0 0 0 0 0 0 0 0 0 0 0 0 0 0 0 0 0 0 0 0 0 0 0 0 0 0
170 176 163 248 390 388 298 432 350 288 416 450 504 389 172 166 35 6 0 0 0 0 0 0 5 0 7 7 0 3 22 26 26 23 27 33 32 18 0 0 0 6 0 3 0 0 0 0 0 0 0 0 60 0 0 0 0 0 0 0 0 0 0 0 0 0 0 0 0 0 0 0 0 0 0 0 0 0 0 0 0 0 0 0 0
6 5 2 21 54 85 332 338 262 214 378 290 330 372 277 214 164 164 66 26 2 0 19 28 27 26 28 24 20 16 13 13 14 15 16 13 9 0 26 48 56 58 51 44 43 46 46 8 0 0 0 78 27 0 0 0 0 0 0 0 0 0 0 0 0 0 0 0 0 0 0 0 0 0 0 0 0 0 0 0 0 0 0 0 0
2 2 7 6 1 4 16 67 120 120 104 48 111 182 110 122 93 71 95 85 44 2 34 41 43 40 53 62 62 56 50 40 36 51 56 70 81 92 112 129 113 81 73 71 68 34 36 4 24 42 94 80 0 0 0 0 0 0 0 0 0 0 0 0 0 0 0 0 0 0 0 0 0 0 0 0 0 0 0 0 0 0 0 0 0
0 1 1 0 0 2 4 4 4 1 1 1 3 73 178 123 117 131 138 116 21 50 5 69 59 46 48 68 70 70 65 70 78 99 114 132 157 196 212 194 128 103 107 97 76 40 0 0 75 133 114 12 0 0 0 0 0 0 0 0 0 0 0 0 0 0 0 0 0 0 0 0 0 0 0 0 0 0 0 0 0 0 0 0 0
0 0 0 0 0 1 3 4 5 7 7 9 19 36 74 87 81 103 152 162 142 174 113 35 68 82 106 126 154 148 140 142 152 172 192 219 242 256 256 216 151 139 144 128 86 39 0 0 21 83 35 0 0 0 0 0 0 0 0 0 0 0 0 0 0 0 0 0 0 0 0 0 0 0 0 0 0 0 0 0 0 0 0 0 0
0 0 0 0 0 0 0 1 2 2 4 3 4 8 4 16 29 21 32 74 70 75 130 190 199 142 117 131 172 129 118 94 6 28 94 170 187 198 197 180 173 166 161 129 89 63 0 0 0 0 0 0 0 3 0 0 0 0 0 0 0 0 0 0 0 0 0 0 0 0 0 0 0 0 0 0 0 0 0 0 0 0 0 0 0
Wind_Speed
10 10 10 10 11 13 14 15 15 16 16 16 16 15 17 18 17 17 20 18 17 15 14 14 14 13 12 12 12 13 14 11 9 10 11 11 8 8 8 11 12 13 14 17 20 21 22 22 23 23 23 23 23 24 23 23 21 19 19 19 19 20 20 20 19 18 19 20 17 16 18 18 20 21 21 22 25 28 29 29 31 31 31 32 34
8 11 12 11 12 13 14 15 16 16 16 16 16 17 18 19 19 20 19 19 18 16 15 15 15 14 12 12 12 13 14 14 11 11 14 12 10 9 8 11 13 13 15 18 21 22 23 23 23 24 24 25 25 25 24 23 23 22 22 22 21 21 22 21 21 20 19 23 22 22 20 22 20 22 22 22 23 26 28 31 32 32 32 32 33
9 13 13 13 12 13 14 15 16 17 16 16 15 16 17 19 21 20 19 19 18 16 15 15 16 15 13 13 14 14 14 14 12 14 15 14 11 10 9 11 14 15 16 19 22 24 24 24 24 24 24 25 26 26 25 25 24 24 25 24 23 22 23 23 21 21 21 22 24 22 23 24 24 23 25 26 26 27 28 31 32 34 35 35 34
11 14 13 12 13 14 14 14 16 16 15 14 14 14 16 18 20 19 20 20 20 18 17 16 16 15 14 14 15 14 14 14 14 14 15 14 12 11 10 11 13 15 17 20 23 25 25 24 24 25 26 26 27 27 26 25 25 25 26 26 25 23 23 23 22 20 21 22 26 26 26 25 27 28 28 29 29 30 31 33 36 36 37 38 38
11 13 14 13 13 14 15 15 15 17 16 14 14 14 14 16 18 19 20 19 20 21 19 17 16 15 14 13 15 15 15 14 14 14 15 14 12 12 11 12 13 15 17 20 24 26 26 25 24 25 26 26 27 26 26 27 26 26 26 26 25 24 23 23 22 22 21 22 24 27 28 29 29 29 31 31 33 34 35 36 38 39 39 39 39
11 13 14 14 13 15 15 15 16 18 17 16 16 16 15 15 16 19 20 20 21 21 20 18 17 15 14 14 16 16 16 15 14 15 15 14 13 12 11 12 13 15 18 21 24 27 26 25 25 26 26 27 26 26 27 29 28 27 27 27 26 25 25 24 23 23 23 22 23 24 29 29 30 32 34 34 33 34 37 40 41 43 42 40 41
14 14 14 14 14 15 16 15 15 17 17 17 16 17 18 18 17 17 18 19 21 22 21 19 18 16 15 16 17 18 17 16 15 16 15 14 13 13 12 12 13 15 17 21 24 26 26 26 26 26 27 27 27 28 30 31 29 28 28 27 26 26 26 25 25 25 25 24 24 25 26 29 30 31 35 36 36 37 38 39 39 43 45 42 42
16 15 14 13 14 16 15 14 14 15 16 16 17 19 21 21 21 20 20 20 18 18 19 20 19 18 17 17 18 19 19 17 16 16 16 14 14 14 13 12 13 15 17 20 23 25 26 26 27 27 27 27 29 30 33 29 26 27 26 25 25 26 26 26 26 26 25 26 26 26 28 29 31 33 36 38 39 40 42 41 40 40 43 45 45
19 17 14 13 14 14 13 12 12 14 16 16 17 19 21 22 23 23 23 23 20 20 17 16 16 17 17 18 19 20 19 16 16 18 16 14 14 14 13 12 13 15 17 19 22 24 25 25 26 27 28 29 32 30 30 28 26 27 27 26 26 27 27 27 26 26 26 26 26 28 28 30 32 34 37 39 41 40 45 45 43 43 43 43 45
19 14 12 12 13 15 15 13 13 15 16 16 18 20 21 22 23 24 24 24 22 20 18 16 15 14 15 16 18 19 19 17 17 19 17 16 16 16 15 14 14 15 17 19 22 24 24 24 24 28 28 29 30 31 31 31 29 26 26 25 26 27 28 28 27 26 26 27 28 28 28 30 33 35 36 38 42 45 46 47 46 45 44 43 42
16 13 9 9 12 14 14 12 12 14 16 16 17 19 21 21 21 22 23 23 23 21 20 18 17 15 15 16 17 18 18 17 20 20 17 17 18 18 17 16 16 17 18 20 22 23 23 23 22 26 27 26 28 32 33 33 31 29 26 26 26 26 28 28 26 26 27 28 29 29 29 30 32 35 38 39 42 45 44 46 46 45 44 42 39
14 12 8 12 15 14 13 14 13 14 15 16 17 18 19 20 20 20 21 23 22 21 20 17 15 15 14 15 15 16 17 18 22 20 19 19 19 19 19 18 18 18 18 20 21 22 23 23 23 23 26 27 28 30 31 32 31 30 28 27 27 27 27 27 27 28 29 29 30 30 31 33 33 37 39 41 42 45 46 47 47 45 43 41 39
14 11 11 14 13 14 15 15 14 13 14 15 15 16 18 19 20 20 21 21 20 20 20 18 16 15 14 15 15 15 14 21 23 21 20 21 21 19 20 19 19 19 19 21 22 23 24 23 22 23 25 31 29 29 30 31 31 30 28 28 28 29 29 28 27 27 30 31 30 31 33 33 36 38 41 43 46 45 45 46 46 46 45 42 39
15 13 14 14 14 14 16 16 14 13 14 15 15 17 18 18 20 20 20 20 19 19 20 20 18 17 16 14 13 13 12 21 25 23 23 24 24 23 20 21 20 20 21 23 23 23 24 24 23 24 26 31 30 31 31 31 31 29 29 29 30 32 32 31 31 30 30 31 32 33 36 39 39 41 45 46 46 45 46 45 46 45 43 41 38
18 18 18 16 16 16 16 16 16 16 17 17 17 17 18 17 19 21 22 22 20 19 19 19 19 19 18 16 12 11 12 21 26 25 25 27 27 26 23 22 22 22 23 23 24 24 24 23 23 25 29 31 32 33 31 32 32 31 31 32 34 35 35 35 35 34 35 34 34 34 37 40 41 43 46 45 45 45 45 44 45 44 42 39 nan
19 21 22 20 18 17 17 18 19 20 20 19 18 18 20 20 18 19 21 21 20 19 19 18 18 18 18 17 15 12 12 21 26 27 28 29 32 29 26 23 21 24 23 24 25 25 25 25 24 26 30 32 36 38 33 31 32 33 35 35 37 38 38 37 36 35 34 34 34 nan nan 41 43 43 44 44 46 nan nan nan nan nan nan nan nan
20 21 22 21 20 21 23 24 23 22 21 21 20 20 21 21 19 19 19 21 22 22 20 20 17 16 17 17 17 14 12 21 27 29 30 33 34 29 28 25 20 20 23 25 26 27 26 25 26 28 31 32 39 41 36 34 33 35 36 37 39 40 41 40 38 nan nan nan nan nan nan nan nan nan nan nan 43 nan nan nan nan nan nan nan nan
20 20 21 24 25 27 26 24 24 23 24 23 23 22 23 24 24 24 21 22 22 21 21 19 18 17 17 17 18 16 14 21 30 31 33 36 34 31 31 28 22 21 21 23 26 27 27 29 28 30 32 34 42 40 37 36 34 37 37 39 41 42 43 42 39 37 nan nan nan nan nan nan nan nan nan nan nan nan nan nan nan nan nan nan nan
21 18 19 25 28 27 26 24 23 26 25 24 24 24 24 26 27 29 26 25 26 27 26 22 19 18 18 18 20 19 17 24 33 34 34 36 34 33 33 31 26 24 24 24 25 25 27 29 31 32 34 38 44 40 39 37 35 38 39 40 42 44 44 45 42 nan nan nan nan nan nan nan nan nan nan nan nan nan nan nan nan nan nan nan nan
23 22 23 26 29 30 30 30 30 28 25 27 27 25 27 30 32 33 31 29 29 29 30 27 25 23 20 17 20 22 21 25 34 36 36 36 36 34 34 32 27 26 26 27 28 28 27 27 31 33 37 43 43 42 43 43 40 39 40 41 43 45 46 45 43 43 nan nan nan nan nan nan nan nan nan nan nan nan nan nan nan nan nan nan nan
30 28 29 29 30 30 32 33 30 26 26 28 28 28 30 30 31 33 32 33 32 29 28 28 25 23 21 18 19 20 23 28 36 38 37 38 37 36 32 31 30 28 30 31 29 30 31 30 31 37 41 42 43 43 45 46 45 43 43 42 43 47 49 46 nan nan nan nan nan nan nan nan nan nan nan nan nan nan nan nan nan nan nan nan nan
31 31 32 31 30 31 31 30 28 27 29 31 30 29 29 30 31 33 34 33 33 31 30 30 27 23 24 22 23 23 28 34 39 39 40 39 39 38 34 32 34 32 32 32 32 32 34 35 34 41 44 43 43 45 47 48 49 46 46 47 51 nan 49 47 nan nan nan nan nan nan nan nan nan nan nan nan nan nan nan nan nan nan nan nan nan
33 33 33 32 32 33 32 31 30 29 30 31 30 29 32 33 34 35 36 35 33 31 31 32 31 30 29 26 27 27 31 38 42 42 42 43 41 39 37 35 41 37 33 34 34 36 40 39 39 46 46 45 45 47 47 50 52 49 54 55 56 55 52 nan nan nan nan nan nan nan nan nan nan nan nan nan nan nan nan nan nan nan nan nan nan
37 35 34 33 33 33 32 31 30 29 30 33 32 33 36 38 39 38 39 38 36 36 36 36 36 34 33 29 27 28 33 44 44 44 42 44 43 42 40 38 45 40 36 35 38 41 44 43 45 50 49 49 50 50 50 54 54 57 57 56 57 53 48 nan nan nan nan nan nan nan nan nan nan nan nan nan nan nan nan nan nan nan nan nan nan
38 35 34 33 34 35 34 32 32 32 32 35 36 36 38 42 42 40 41 40 41 39 39 39 38 38 39 38 35 33 35 40 46 47 45 41 41 42 42 43 45 45 42 41 46 45 49 53 57 54 53 56 55 53 54 57 59 56 56 59 57 48 48 nan nan nan nan nan nan nan nan nan nan nan nan nan nan nan nan nan nan nan nan nan nan
37 35 35 36 36 36 36 35 34 34 34 35 36 37 38 40 41 42 42 44 44 42 42 44 43 41 44 42 42 40 38 36 44 47 47 45 43 42 44 46 49 49 46 47 52 57 59 61 60 60 61 61 59 55 54 53 52 52 56 57 51 49 nan nan nan nan nan nan nan nan nan nan nan nan nan nan nan nan nan nan nan nan nan nan nan
40 39 39 39 39 38 37 36 36 35 36 36 37 38 40 40 41 43 42 43 43 43 43 44 43 42 41 40 43 52 52 46 45 47 49 48 45 47 50 50 52 54 54 57 60 62 63 63 61 62 62 65 64 60 58 53 47 48 49 50 50 50 nan 48 nan 48 nan nan nan nan nan nan nan nan nan nan nan nan nan nan nan nan nan nan nan
46 46 46 46 44 43 41 41 40 41 41 41 41 41 41 41 42 42 43 42 41 41 42 43 43 43 43 43 48 55 51 52 51 53 53 54 52 54 56 57 56 55 56 59 63 65 65 67 70 67 67 67 67 64 59 54 52 54 53 51 51 nan nan nan nan nan nan nan nan nan nan nan nan nan nan nan nan nan nan nan nan nan nan nan nan
56 56 54 51 50 49 47 47 45 43 43 43 42 41 41 40 40 39 39 43 44 45 46 45 46 44 45 47 53 54 52 53 52 55 59 63 63 64 62 60 60 56 59 67 70 70 70 69 69 70 67 67 66 65 64 63 58 55 55 53 nan nan nan nan nan nan nan nan nan nan nan nan nan nan nan nan nan nan nan nan nan nan nan nan nan
58 57 56 54 52 51 49 47 47 46 45 45 45 45 49 49 47 45 44 50 53 51 54 49 48 50 53 55 56 55 54 51 50 58 63 68 68 69 67 67 64 62 66 72 72 71 70 72 71 69 67 64 63 64 64 nan 57 53 nan nan nan nan nan nan nan nan nan nan nan nan nan nan nan nan nan nan nan nan nan nan nan nan nan nan nan
52 52 52 51 50 50 49 49 49 49 49 48 47 48 48 50 52 52 51 51 51 51 50 47 45 45 50 52 54 51 51 50 56 62 68 69 67 68 72 73 73 74 75 75 71 70 71 73 72 70 66 62 61 nan nan nan 55 nan nan nan nan nan nan nan nan nan nan nan nan nan nan nan nan nan nan nan nan nan nan nan nan nan nan nan nan
51 50 49 47 47 48 49 50 50 50 51 52 52 53 52 50 52 54 53 54 54 52 50 48 48 49 48 50 55 61 59 69 74 70 71 73 70 69 73 76 78 81 80 81 76 71 71 74 73 70 65 nan nan nan nan 52 nan nan nan nan nan nan nan nan nan nan nan nan nan nan nan nan nan nan nan nan nan nan nan nan nan nan nan nan nan
52 52 51 50 51 52 52 52 52 52 52 52 52 53 53 53 54 55 54 53 51 50 49 51 51 51 51 50 53 60 68 72 74 73 73 75 80 79 78 81 81 80 82 78 76 72 70 71 70 nan nan nan nan nan nan nan nan nan nan nan nan nan nan nan nan nan nan nan nan nan nan nan nan nan nan nan nan nan nan nan nan nan nan nan nan
55 54 54 55 55 55 55 55 55 54 53 53 53 53 53 53 53 53 53 53 52 51 nan nan 50 52 54 55 58 64 72 73 74 77 79 82 84 85 85 84 87 84 75 68 66 65 64 64 nan nan nan nan nan 50 nan nan nan nan nan nan nan nan nan nan nan nan nan nan nan nan nan nan nan nan nan nan nan nan nan nan nan nan nan nan nan
56 59 61 58 57 56 56 56 56 56 56 56 55 54 54 53 53 54 54 53 52 52 54 56 57 nan 55 57 63 69 76 78 80 79 81 86 89 90 91 89 86 80 74 66 61 63 64 64 nan nan nan nan nan nan nan nan nan nan nan nan nan nan nan nan nan nan nan nan nan nan nan nan nan nan nan nan nan nan nan nan nan nan nan nan nan
60 60 60 60 59 57 56 55 55 55 56 55 54 53 53 54 55 55 nan nan nan 53 55 56 55 nan nan nan 62 71 79 84 81 81 83 88 92 96 84 76 76 75 75 72 68 67 nan nan nan nan nan nan nan nan nan nan nan nan nan nan nan nan nan nan nan nan nan nan nan nan nan nan nan nan nan nan nan nan nan nan nan nan nan nan nan
63 63 63 62 61 59 58 56 55 55 55 54 54 54 54 54 54 nan nan nan nan nan nan nan nan nan nan nan nan 68 77 77 79 84 89 92 95 88 78 70 69 70 70 71 68 nan nan nan nan nan nan nan nan nan nan nan nan nan nan nan nan nan nan nan nan nan nan nan nan nan nan nan nan nan nan nan nan nan nan nan nan nan nan nan nan
65 64 64 62 60 58 56 55 54 54 55 54 54 53 52 52 nan nan nan nan nan nan nan nan nan nan nan nan nan nan 68 75 83 84 84 85 85 86 81 73 70 67 66 nan nan nan nan nan nan nan nan nan nan nan nan nan nan nan nan nan nan nan nan nan nan nan nan nan nan nan nan nan nan nan nan nan nan nan nan nan nan nan nan nan nan
65 65 62 58 55 53 51 51 51 52 52 51 51 50 nan nan nan nan nan nan nan nan nan nan nan nan nan nan nan nan nan 62 60 62 71 78 81 82 79 71 68 nan nan 64 nan nan nan nan nan nan nan nan nan nan nan nan nan nan nan nan nan nan nan nan nan nan nan nan nan nan nan nan nan nan nan nan nan nan nan nan nan nan nan nan nan
61 59 56 51 50 48 48 49 49 49 49 49 49 48 50 nan nan nan nan nan nan nan nan nan nan nan nan nan nan nan nan nan 52 48 64 77 76 75 nan nan nan nan nan nan nan nan nan nan nan nan nan nan nan nan nan nan nan nan nan nan nan nan nan nan nan nan nan nan nan nan nan nan nan nan nan nan nan nan nan nan nan nan nan nan nan
57 55 53 51 46 46 46 45 47 47 48 nan nan nan nan nan nan nan nan nan nan nan nan nan nan nan nan nan nan nan nan nan 57 57 nan 59 nan nan nan nan nan nan nan nan nan nan nan nan nan nan nan nan nan nan nan nan nan nan nan nan nan nan nan nan nan nan nan nan nan nan nan nan nan nan nan nan nan nan nan nan nan nan nan nan nan
54 53 51 49 46 46 46 45 46 47 48 nan nan nan nan nan nan nan nan nan nan nan nan nan nan nan nan 29 34 35 32 40 50 nan nan nan 51 48 nan nan nan nan nan nan nan nan nan nan nan nan nan nan nan nan nan nan nan nan nan nan nan nan nan nan nan nan nan nan nan nan nan nan nan nan nan nan nan nan nan nan nan nan nan nan nan
52 50 49 47 46 46 46 46 46 47 48 49 nan nan nan nan nan nan nan nan nan nan nan nan nan nan nan nan 22 28 25 28 37 43 46 50 52 49 49 52 nan nan nan nan nan nan nan nan nan nan nan nan nan nan nan nan nan nan nan nan nan nan nan nan nan nan nan nan nan nan nan nan nan nan nan nan nan nan nan nan nan nan nan nan nan
51 50 49 48 48 47 47 47 47 49 49 50 nan nan 48 nan nan nan nan nan nan nan nan nan nan nan nan nan nan nan nan nan nan nan nan nan nan nan nan nan nan nan nan nan nan nan nan nan nan nan nan nan nan nan nan nan nan nan nan nan nan nan nan nan nan nan nan nan nan nan nan nan nan nan nan nan nan nan nan nan nan nan nan nan nan
51 50 49 49 50 49 50 49 49 49 50 50 51 51 48 45 nan nan nan nan nan nan nan nan nan nan nan nan nan nan nan nan nan nan nan nan nan nan nan nan nan nan nan nan nan nan nan nan nan nan nan nan nan nan nan nan nan nan nan nan nan nan nan nan nan nan nan nan nan nan nan nan nan nan nan nan nan nan nan nan nan nan nan nan nan
50 51 51 51 51 50 50 49 48 49 49 50 50 50 47 45 nan nan nan nan nan nan nan nan nan nan nan nan nan nan nan nan nan nan nan nan nan nan nan nan nan nan nan nan nan nan nan nan nan nan nan nan nan nan nan nan nan nan nan nan nan nan nan nan nan nan nan nan nan nan nan nan nan nan nan nan nan nan nan nan nan nan nan nan nan
nan nan nan nan nan nan 46 46 46 47 49 50 50 48 45 43 42 41 nan nan nan nan nan nan nan nan nan nan nan nan nan nan nan nan nan nan nan nan nan nan nan nan nan nan nan nan nan nan nan nan nan nan nan nan nan nan nan nan nan nan nan nan nan nan nan nan nan nan nan nan nan nan nan nan nan nan nan nan nan nan nan nan nan nan nan
nan nan nan nan nan nan nan nan 42 43 46 nan 47 45 44 41 nan nan nan nan nan nan nan nan nan nan nan nan nan nan nan nan nan nan nan nan nan nan 27 28 29 nan nan nan nan nan nan nan nan nan nan nan nan nan nan nan nan nan nan nan nan nan nan nan nan nan nan nan nan nan nan nan nan nan nan nan nan nan nan nan nan nan nan nan nan
nan nan nan nan nan nan nan nan nan nan nan nan nan nan 41 39 34 30 28 28 nan nan nan nan nan nan nan nan nan nan nan nan nan nan 30 31 32 32 33 34 36 37 37 nan nan nan nan nan nan 25 25 nan nan nan nan nan nan nan nan nan nan nan nan nan nan nan nan nan nan nan nan nan nan nan nan nan nan nan nan nan nan nan nan nan nan
nan nan nan nan nan nan nan nan nan nan nan nan nan nan nan nan nan 31 28 25 24 24 24 nan nan nan 29 27 21 26 31 33 32 31 31 32 33 34 36 37 37 37 36 36 nan nan nan nan nan nan nan nan nan nan nan nan nan nan nan nan nan nan nan nan nan nan nan nan nan nan nan nan nan nan nan nan nan nan nan nan nan nan nan nan nan
nan nan nan nan nan nan nan nan nan nan nan nan nan nan nan nan nan nan nan nan nan nan 24 23 25 28 28 28 26 26 31 nan nan nan nan 31 32 33 33 33 32 32 32 31 nan nan nan nan nan nan nan nan nan nan nan nan nan nan nan nan nan nan nan nan nan nan nan nan nan nan nan nan nan nan nan nan nan nan nan nan nan nan nan nan nan
Wind_Direction
308 298 291 293 292 294 292 286 289 280 278 276 274 274 273 273 274 274 273 278 281 284 285 287 288 293 302 308 316 314 312 305 298 302 298 297 303 312 319 336 353 353 349 348 349 350 355 357 356 356 353 355 352 350 347 342 343 343 339 336 336 335 339 340 345 346 334 329 333 333 326 329 331 332 331 326 323 322 323 321 319 317 315 314 312
300 288 284 286 306 304 308 301 299 293 292 284 278 271 269 269 270 270 275 278 280 283 285 282 284 290 297 304 308 311 308 304 301 295 290 295 304 294 315 334 343 347 343 346 345 346 348 352 355 354 354 358 355 352 349 348 345 345 342 342 340 337 338 339 342 342 340 327 332 332 334 330 330 327 327 325 324 321 321 318 316 314 313 313 313
293 279 283 288 307 310 318 318 311 312 309 293 290 280 272 270 269 273 275 276 278 280 280 282 282 287 291 295 301 303 305 302 298 288 288 295 301 301 314 333 338 340 342 343 342 342 344 348 353 352 350 356 355 352 349 348 346 346 344 343 345 342 338 339 339 340 339 334 329 332 331 329 331 328 326 325 324 321 320 319 317 315 314 314 314
275 277 282 294 307 316 327 330 336 335 327 309 305 295 282 276 274 277 278 277 280 279 279 282 281 285 289 293 299 301 300 294 287 283 288 294 297 299 308 324 329 335 340 338 339 339 344 346 351 351 350 353 353 350 347 345 344 343 344 344 346 347 340 337 339 339 335 337 330 334 331 331 330 330 326 325 326 325 323 319 317 316 315 316 317
272 282 294 304 314 327 341 345 351 351 344 332 331 319 304 288 279 282 280 282 283 280 278 279 281 285 287 292 295 297 295 290 284 281 281 287 294 293 302 315 323 331 335 334 335 337 342 347 347 349 349 351 351 351 347 346 346 344 345 341 342 343 337 334 336 336 337 337 333 329 328 329 328 326 326 328 328 327 324 320 317 316 317 317 317
280 281 291 301 312 333 339 352 1 357 351 349 346 340 330 317 301 289 287 285 283 283 283 279 280 287 287 288 288 291 289 285 282 280 283 288 287 289 293 307 318 325 330 329 330 335 341 345 346 348 350 349 352 353 350 350 346 345 343 337 336 336 336 335 334 336 336 337 333 329 325 328 327 327 328 328 328 327 323 321 320 318 317 318 316
278 282 291 306 311 330 337 348 352 353 351 350 346 346 347 345 341 328 312 303 294 288 287 286 280 282 283 282 285 286 287 284 278 276 278 284 288 289 293 305 313 317 323 327 330 333 338 339 343 348 350 348 351 352 348 347 345 343 336 334 332 333 335 335 334 335 335 334 330 327 326 325 325 326 325 324 325 324 322 321 320 318 318 317 316
280 281 284 298 312 328 335 338 342 345 347 348 351 352 350 350 352 349 345 344 335 319 307 296 284 278 277 278 278 279 283 283 280 277 277 282 281 283 292 300 310 313 317 323 327 330 333 337 342 346 348 345 346 345 338 340 341 338 331 331 332 333 334 334 335 335 334 331 329 327 326 324 324 325 324 325 326 325 321 319 319 317 317 317 317
281 283 284 301 313 315 311 317 325 331 334 340 348 351 351 352 352 352 351 355 357 357 345 326 306 293 283 275 275 278 284 286 279 277 277 281 277 280 289 298 302 306 312 320 322 324 327 333 340 345 345 346 348 342 339 340 340 338 333 330 330 330 333 333 333 333 331 329 327 325 325 325 326 328 328 327 326 322 318 319 320 319 318 318 317
285 294 306 318 305 295 292 297 314 320 324 335 338 339 344 351 357 358 355 355 356 355 356 353 345 324 303 287 278 278 283 281 284 293 286 275 275 271 278 287 295 300 308 313 316 320 326 331 336 345 344 348 347 346 343 343 345 340 330 327 327 327 331 333 333 331 330 328 328 327 327 328 328 328 327 324 321 319 319 320 320 318 319 319 320
293 305 328 322 290 284 286 302 304 318 325 327 331 333 338 343 353 359 359 358 358 351 350 354 350 337 325 306 296 286 283 280 292 290 295 291 274 273 279 283 288 297 305 309 312 316 322 329 333 338 342 340 341 342 342 343 344 343 337 327 324 329 331 333 334 331 328 327 325 326 327 328 327 323 323 322 321 320 319 319 319 319 319 320 321
303 302 307 275 274 285 300 305 312 320 319 323 325 326 325 334 347 355 354 353 352 354 356 349 340 336 325 321 313 298 286 285 288 293 293 293 283 272 274 278 283 293 301 306 307 310 315 320 328 330 332 338 338 337 340 342 343 343 339 333 331 336 338 336 332 329 328 327 326 327 328 327 324 322 322 321 320 319 319 319 319 319 321 323 324
294 293 280 283 290 293 296 304 313 311 315 314 313 315 320 327 336 341 346 342 340 352 359 350 343 336 331 328 324 309 288 285 289 292 291 291 291 280 269 277 283 289 295 301 303 305 305 312 320 323 323 328 329 331 333 337 342 343 338 334 334 336 339 340 334 329 325 326 328 327 327 324 323 322 320 318 317 320 320 321 321 322 323 325 325
281 284 277 279 284 288 293 303 311 307 299 302 305 312 318 326 327 327 327 328 333 344 353 354 346 343 343 343 327 308 298 285 291 289 287 288 288 282 269 276 280 284 291 295 296 300 303 307 313 317 319 321 326 328 328 333 333 333 332 331 333 335 336 333 325 319 322 325 326 326 320 319 320 319 317 318 320 321 321 322 322 324 325 325 321
269 270 271 273 271 275 286 295 297 291 291 295 298 305 311 313 316 313 314 319 328 341 340 344 351 355 356 343 331 325 300 290 289 289 285 286 287 282 272 272 273 278 283 289 292 295 300 304 311 312 313 316 318 322 326 330 330 328 329 332 334 334 331 328 326 324 322 323 324 322 318 318 319 318 318 319 321 323 323 323 322 323 323 323 nan
270 267 270 273 275 273 275 277 280 281 284 288 294 301 303 305 304 298 298 304 312 319 315 326 341 348 349 348 348 344 313 298 293 291 288 283 284 273 275 276 277 276 280 285 287 290 295 301 305 307 308 313 313 316 321 325 327 327 326 331 333 331 329 316 315 316 314 319 318 nan nan 312 311 316 316 319 323 nan nan nan nan nan nan nan nan
274 273 274 275 271 264 261 264 269 275 282 287 295 300 299 299 293 285 292 296 298 304 315 320 321 322 333 339 344 344 325 300 299 294 289 287 278 272 276 275 279 282 279 282 285 287 292 299 302 301 305 307 307 314 322 323 325 326 327 328 330 330 326 311 302 nan nan nan nan nan nan nan nan nan nan nan 319 nan nan nan nan nan nan nan nan
279 275 271 269 264 257 256 260 264 275 282 288 293 293 290 287 292 291 295 293 292 298 292 294 306 312 324 332 327 334 337 307 302 295 292 289 285 277 274 277 283 282 283 285 282 283 289 300 302 301 301 301 303 312 319 321 322 324 324 325 327 328 323 315 312 307 nan nan nan nan nan nan nan nan nan nan nan nan nan nan nan nan nan nan nan
279 281 275 270 268 268 266 264 260 261 269 274 276 280 281 282 281 280 286 288 290 285 284 284 285 292 299 310 318 328 318 301 303 299 296 291 285 274 276 278 285 284 284 283 283 282 282 289 303 300 299 297 303 311 317 318 320 319 320 322 325 327 324 318 315 nan nan nan nan nan nan nan nan nan nan nan nan nan nan nan nan nan nan nan nan
275 276 277 275 272 270 271 271 260 257 266 270 272 274 273 276 281 284 288 291 296 300 299 299 289 275 281 299 296 302 306 290 295 303 299 294 294 279 277 285 291 287 284 282 276 276 280 285 293 302 298 295 303 310 316 318 316 315 315 320 323 326 322 318 314 312 nan nan nan nan nan nan nan nan nan nan nan nan nan nan nan nan nan nan nan
261 266 267 270 273 277 278 279 277 267 266 274 277 275 277 284 289 292 298 298 301 309 316 317 306 285 274 278 280 292 290 289 288 303 299 296 296 288 283 291 289 285 279 276 277 277 277 281 284 292 295 298 304 310 312 317 314 310 314 319 321 317 316 315 nan nan nan nan nan nan nan nan nan nan nan nan nan nan nan nan nan nan nan nan nan
261 265 268 272 277 282 284 283 278 268 268 273 278 281 285 291 294 298 296 300 311 315 318 319 313 303 277 272 274 282 287 295 281 297 300 300 297 301 288 291 288 284 279 275 276 273 273 276 280 286 295 296 302 306 311 314 310 307 310 311 305 nan 314 313 nan nan nan nan nan nan nan nan nan nan nan nan nan nan nan nan nan nan nan nan nan
268 270 273 278 284 289 290 291 286 282 282 284 286 289 291 296 299 300 301 301 307 314 312 309 311 305 294 288 281 280 280 281 288 286 298 301 301 303 305 294 292 285 282 279 277 272 267 273 277 285 292 294 297 301 305 309 305 300 299 302 307 311 313 nan nan nan nan nan nan nan nan nan nan nan nan nan nan nan nan nan nan nan nan nan nan
267 270 271 276 281 284 285 290 290 290 292 290 291 293 297 299 300 302 303 304 306 306 306 305 303 305 305 300 290 283 276 270 277 287 290 300 300 302 303 297 292 284 282 276 273 271 271 273 273 284 288 289 290 291 295 300 297 294 296 301 305 309 311 nan nan nan nan nan nan nan nan nan nan nan nan nan nan nan nan nan nan nan nan nan nan
270 273 275 277 281 282 284 287 290 291 291 292 293 294 297 297 298 301 301 303 301 301 304 306 307 303 300 301 301 292 278 274 273 282 290 288 291 293 294 294 285 283 274 271 269 270 272 274 275 282 284 285 285 285 287 292 291 293 296 301 303 305 310 nan nan nan nan nan nan nan nan nan nan nan nan nan nan nan nan nan nan nan nan nan nan
267 269 271 274 277 281 284 286 287 288 286 285 287 288 291 291 292 292 294 293 297 304 301 299 302 303 296 299 299 296 291 286 275 276 278 283 281 284 285 284 279 278 275 268 268 270 271 273 277 277 277 279 278 280 282 282 288 294 297 299 301 304 nan nan nan nan nan nan nan nan nan nan nan nan nan nan nan nan nan nan nan nan nan nan nan
264 267 269 270 272 275 279 278 278 279 281 280 280 281 282 282 283 283 288 290 296 298 299 298 298 298 301 301 298 288 288 287 282 281 278 276 278 278 275 272 273 274 267 261 263 263 268 270 271 274 274 278 276 278 277 277 283 293 295 297 299 300 nan 307 nan 305 nan nan nan nan nan nan nan nan nan nan nan nan nan nan nan nan nan nan nan
262 264 266 265 266 269 271 272 274 274 275 277 278 278 279 280 280 281 283 287 290 293 293 293 296 298 298 298 290 284 292 290 290 287 287 283 280 279 276 272 267 267 268 265 263 262 264 267 269 267 269 271 273 274 272 270 280 293 296 296 297 nan nan nan nan nan nan nan nan nan nan nan nan nan nan nan nan nan nan nan nan nan nan nan nan
260 261 262 264 264 264 265 266 268 269 268 270 272 272 275 277 279 278 281 280 283 286 287 288 289 292 292 288 285 283 286 289 295 295 292 291 287 279 276 275 270 268 267 266 263 262 263 264 264 267 268 271 273 276 276 276 282 291 293 293 nan nan nan nan nan nan nan nan nan nan nan nan nan nan nan nan nan nan nan nan nan nan nan nan nan
257 258 259 260 260 261 262 264 264 267 269 271 271 271 269 268 270 269 270 262 255 254 257 269 272 278 280 281 285 285 287 289 291 290 286 283 283 284 283 282 278 267 267 269 264 261 261 263 264 265 268 271 275 278 281 nan 285 289 nan nan nan nan nan nan nan nan nan nan nan nan nan nan nan nan nan nan nan nan nan nan nan nan nan nan nan
257 259 259 260 261 262 263 264 266 268 270 271 273 272 271 271 268 268 270 268 266 261 262 265 265 264 273 279 280 288 287 283 278 277 274 274 276 278 280 282 278 274 271 264 258 260 261 261 263 265 267 273 278 nan nan nan 285 nan nan nan nan nan nan nan nan nan nan nan nan nan nan nan nan nan nan nan nan nan nan nan nan nan nan nan nan
258 259 261 263 265 266 268 269 269 269 270 271 272 271 269 268 267 269 271 272 272 274 274 272 272 276 278 281 279 275 279 279 279 282 281 279 277 274 274 275 275 276 274 270 261 257 257 260 264 268 269 nan nan nan nan 278 nan nan nan nan nan nan nan nan nan nan nan nan nan nan nan nan nan nan nan nan nan nan nan nan nan nan nan nan nan
259 260 261 262 262 262 262 263 264 265 266 268 269 268 267 267 265 263 264 269 275 277 278 280 282 279 280 281 286 284 281 282 285 285 284 282 280 280 280 280 280 279 275 266 260 259 259 263 268 nan nan nan nan nan nan nan nan nan nan nan nan nan nan nan nan nan nan nan nan nan nan nan nan nan nan nan nan nan nan nan nan nan nan nan nan
258 260 263 265 266 268 268 268 268 267 267 267 267 267 267 266 266 266 266 268 270 274 nan nan 280 283 288 291 291 287 285 288 288 285 280 278 278 277 276 275 277 279 274 264 259 259 263 266 nan nan nan nan nan 272 nan nan nan nan nan nan nan nan nan nan nan nan nan nan nan nan nan nan nan nan nan nan nan nan nan nan nan nan nan nan nan
260 261 263 266 268 270 271 271 270 270 271 272 271 270 269 268 269 269 270 270 269 269 269 276 284 nan 289 290 294 293 291 288 285 283 281 278 276 275 272 267 267 267 267 265 263 266 268 268 nan nan nan nan nan nan nan nan nan nan nan nan nan nan nan nan nan nan nan nan nan nan nan nan nan nan nan nan nan nan nan nan nan nan nan nan nan
264 266 267 268 269 270 272 271 269 269 271 271 269 269 268 268 268 270 nan nan nan 273 274 278 280 nan nan nan 295 298 294 290 284 281 282 279 272 271 266 264 265 264 265 265 265 267 nan nan nan nan nan nan nan nan nan nan nan nan nan nan nan nan nan nan nan nan nan nan nan nan nan nan nan nan nan nan nan nan nan nan nan nan nan nan nan
267 268 269 269 270 271 272 271 270 270 270 270 269 266 265 266 269 nan nan nan nan nan nan nan nan nan nan nan nan 287 288 283 280 278 277 273 270 264 260 259 255 257 262 263 262 nan nan nan nan nan nan nan nan nan nan nan nan nan nan nan nan nan nan nan nan nan nan nan nan nan nan nan nan nan nan nan nan nan nan nan nan nan nan nan nan
267 268 270 271 271 271 271 270 269 269 268 267 266 265 265 266 nan nan nan nan nan nan nan nan nan nan nan nan nan nan 275 281 280 273 269 269 264 258 256 253 253 253 254 nan nan nan nan nan nan nan nan nan nan nan nan nan nan nan nan nan nan nan nan nan nan nan nan nan nan nan nan nan nan nan nan nan nan nan nan nan nan nan nan nan nan
267 268 267 266 267 267 268 267 267 266 266 265 264 264 nan nan nan nan nan nan nan nan nan nan nan nan nan nan nan nan nan 265 257 249 260 258 255 252 250 249 250 nan nan 253 nan nan nan nan nan nan nan nan nan nan nan nan nan nan nan nan nan nan nan nan nan nan nan nan nan nan nan nan nan nan nan nan nan nan nan nan nan nan nan nan nan
264 264 263 261 263 261 261 262 263 262 261 262 264 265 266 nan nan nan nan nan nan nan nan nan nan nan nan nan nan nan nan nan 259 239 231 231 233 238 nan nan nan nan nan nan nan nan nan nan nan nan nan nan nan nan nan nan nan nan nan nan nan nan nan nan nan nan nan nan nan nan nan nan nan nan nan nan nan nan nan nan nan nan nan nan nan
262 262 261 259 259 261 261 261 261 261 262 nan nan nan nan nan nan nan nan nan nan nan nan nan nan nan nan nan nan nan nan nan 211 220 nan 218 nan nan nan nan nan nan nan nan nan nan nan nan nan nan nan nan nan nan nan nan nan nan nan nan nan nan nan nan nan nan nan nan nan nan nan nan nan nan nan nan nan nan nan nan nan nan nan nan nan
261 261 260 259 260 259 260 260 261 262 264 nan nan nan nan nan nan nan nan nan nan nan nan nan nan nan nan 189 177 174 165 174 191 nan nan nan 229 231 nan nan nan nan nan nan nan nan nan nan nan nan nan nan nan nan nan nan nan nan nan nan nan nan nan nan nan nan nan nan nan nan nan nan nan nan nan nan nan nan nan nan nan nan nan nan nan
258 259 257 257 257 259 259 260 261 262 264 267 nan nan nan nan nan nan nan nan nan nan nan nan nan nan nan nan 203 194 203 217 224 227 230 231 231 229 225 225 nan nan nan nan nan nan nan nan nan nan nan nan nan nan nan nan nan nan nan nan nan nan nan nan nan nan nan nan nan nan nan nan nan nan nan nan nan nan nan nan nan nan nan nan nan
255 255 255 254 255 256 257 258 260 261 263 265 nan nan 268 nan nan nan nan nan nan nan nan nan nan nan nan nan nan nan nan nan nan nan nan nan nan nan nan nan nan nan nan nan nan nan nan nan nan nan nan nan nan nan nan nan nan nan nan nan nan nan nan nan nan nan nan nan nan nan nan nan nan nan nan nan nan nan nan nan nan nan nan nan nan
252 253 252 252 253 255 257 258 258 260 261 263 263 264 264 265 nan nan nan nan nan nan nan nan nan nan nan nan nan nan nan nan nan nan nan nan nan nan nan nan nan nan nan nan nan nan nan nan nan nan nan nan nan nan nan nan nan nan nan nan nan nan nan nan nan nan nan nan nan nan nan nan nan nan nan nan nan nan nan nan nan nan nan nan nan
250 251 251 252 253 255 255 257 258 258 258 258 259 261 263 263 nan nan nan nan nan nan nan nan nan nan nan nan nan nan nan nan nan nan nan nan nan nan nan nan nan nan nan nan nan nan nan nan nan nan nan nan nan nan nan nan nan nan nan nan nan nan nan nan nan nan nan nan nan nan nan nan nan nan nan nan nan nan nan nan nan nan nan nan nan
nan nan nan nan nan nan 257 257 258 258 259 259 259 258 260 259 260 262 nan nan nan nan nan nan nan nan nan nan nan nan nan nan nan nan nan nan nan nan nan nan nan nan nan nan nan nan nan nan nan nan nan nan nan nan nan nan nan nan nan nan nan nan nan nan nan nan nan nan nan nan nan nan nan nan nan nan nan nan nan nan nan nan nan nan nan
nan nan nan nan nan nan nan nan 256 256 257 nan 258 257 255 253 nan nan nan nan nan nan nan nan nan nan nan nan nan nan nan nan nan nan nan nan nan nan 257 257 254 nan nan nan nan nan nan nan nan nan nan nan nan nan nan nan nan nan nan nan nan nan nan nan nan nan nan nan nan nan nan nan nan nan nan nan nan nan nan nan nan nan nan nan nan
nan nan nan nan nan nan nan nan nan nan nan nan nan nan 252 252 255 261 265 263 nan nan nan nan nan nan nan nan nan nan nan nan nan nan 263 261 257 255 254 254 253 252 253 nan nan nan nan nan nan 254 258 nan nan nan nan nan nan nan nan nan nan nan nan nan nan nan nan nan nan nan nan nan nan nan nan nan nan nan nan nan nan nan nan nan nan
nan nan nan nan nan nan nan nan nan nan nan nan nan nan nan nan nan 253 253 253 254 258 263 nan nan nan 269 264 260 272 277 277 273 267 264 264 262 260 258 255 255 256 256 255 nan nan nan nan nan nan nan nan nan nan nan nan nan nan nan nan nan nan nan nan nan nan nan nan nan nan nan nan nan nan nan nan nan nan nan nan nan nan nan nan nan
nan nan nan nan nan nan nan nan nan nan nan nan nan nan nan nan nan nan nan nan nan nan 255 265 274 273 265 258 251 253 264 nan nan nan nan 270 270 270 267 264 260 256 252 247 nan nan nan nan nan nan nan nan nan nan nan nan nan nan nan nan nan nan nan nan nan nan nan nan nan nan nan nan nan nan nan nan nan nan nan nan nan nan nan nan nan